Location: Auckland
(36.8670°S, 174.7670°E)
Time: 12:45:57
(UTC+13:00)

Daily predictions for brighter satellites

Satellite Brightness Start Highest point End
(mag) Time Altitude Azimuth Time Altitude Azimuth Time Altitude Azimuth
Cosmos 2369 Rocket 3.9 20:02:44 10° SW 20:07:58 36° WNW 20:13:08 10° N
Meteor 1-11 4.4 20:05:30 10° N 20:11:12 60° E 20:16:54 10° SSE
ISS -2.7 20:09:18 10° WNW 20:12:34 49° SW 20:15:54 10° SE
Cosmos 2123 Rocket 4.1 20:07:14 10° S 20:13:40 82° E 20:20:02 10° N
Cosmos 1455 2.2 20:09:46 10° S 20:13:43 81° E 20:17:37 10° N
Cosmos 1656 Rocket 3.9 20:10:56 10° SSW 20:16:41 78° WNW 20:22:22 10° NNE
YAOGAN 6 2.7 20:14:32 10° SSE 20:18:17 63° E 20:21:59 10° N
Okean-O 3.3 20:14:30 10° S 20:18:57 61° WSW 20:23:20 10° NNW
Aureole 2 Rocket 2.7 20:17:15 10° S 20:19:47 31° ESE 20:22:14 10° NE
NOAA 12 4.3 20:15:10 10° S 20:20:28 78° WSW 20:25:44 10° NNW
Cosmos 1703 3.8 20:19:13 10° NNW 20:23:05 64° W 20:27:02 10° S
EO 1 Delta rocket 4.5 20:16:41 10° S 20:23:39 79° E 20:29:02 10° N
CZ-4 R/B 4.4 20:22:51 10° SSE 20:27:05 79° ENE 20:31:14 10° N
Cosmos 1354 Rocket 4.4 20:23:07 10° NNW 20:28:24 72° WSW 20:33:47 10° SSE
Cosmos 1605 Rocket 4.1 20:25:39 10° N 20:31:45 85° W 20:38:01 10° S
Cosmos 1833 Rocket 4.2 20:28:50 10° NE 20:31:54 15° E 20:34:59 10° ESE
Envisat 3.5 20:32:29 10° S 20:37:36 65° WSW 20:42:38 10° NNW
Cosmos 1867 4.1 20:32:35 10° SSW 20:37:44 42° SE 20:41:44 16° ENE
Cosmos 1340 Rocket 3.2 20:34:03 10° SSW 20:38:03 64° W 20:41:57 10° N
Cosmos 2173 Rocket 4.2 20:43:23 10° NNE 20:49:10 47° E 20:55:02 10° SSE
Meteor 2-10 Rocket 4.4 20:43:27 10° SSW 20:49:13 59° W 20:54:45 10° N
Cosmos 1777 Rocket 4.2 20:44:23 10° N 20:49:25 50° ENE 20:54:31 10° SSE
CZ-2D R/B 3.2 20:48:39 10° SSE 20:52:31 64° E 20:56:19 10° N
Cosmos 1939 Rocket 2.8 20:50:32 10° SSE 20:54:26 59° E 20:58:17 10° N
YAOGAN 1 2.9 20:52:14 10° S 20:56:38 69° WSW 21:00:56 10° NNW
CZ-4C R/B 3.0 20:48:30 10° NNW 20:56:48 86° ENE 21:04:08 10° SSE
Cosmos 1802 Rocket 4.2 20:53:40 10° NNE 20:59:37 47° E 21:05:33 10° SSE
Cosmos 2082 Rocket 3.7 21:05:23 17° E 21:05:23 17° E 21:07:48 10° SE
Cosmos 1869 3.7 21:00:17 10° S 21:04:13 45° E 21:05:39 31° NE
CSL-04 Rocket 4.0 20:59:25 10° S 21:05:00 73° WSW 21:10:33 10° NNW
Centaur AC-112 4.0 21:04:03 10° WNW 21:07:13 16° NNW 21:08:07 15° N
GPS 2-04 Rocket1 2.4 21:04:36 10° WNW 21:08:03 62° N 21:09:00 42° ENE
DELTA 2 R/B (1) 3.8 21:02:42 10° W 21:08:20 68° S 21:12:30 19° ESE
Haruka 4.2 20:54:19 10° W 21:08:32 48° NNW 21:11:13 25° NE
Cosmos 1766 Rocket 4.2 21:09:15 32° ENE 21:10:01 34° E 21:14:05 10° SSE
Cosmos 1892 3.4 21:11:34 33° E 21:11:34 33° E 21:14:48 10° SSE
Cosmos 2221 3.2 21:07:03 10° SSW 21:11:22 56° W 21:15:35 10° N
PSLV R/B 2.5 21:09:00 10° WSW 21:11:38 79° NW 21:11:38 79° NW
DMSP B5D2-2 4.3 21:11:37 11° N 21:16:42 73° WNW 21:22:00 10° SSW
Cosmos 1076 Rocket 4.1 21:13:06 10° NNW 21:17:19 59° W 21:21:36 10° S
Cosmos 2100 Rocket 3.9 21:11:14 10° N 21:17:25 88° E 21:23:46 10° S
Lacrosse 5 rocket 3.3 21:15:41 10° N 21:16:52 17° N 21:16:52 17° N
Ariane Rocket 2.9 21:15:05 10° SSE 21:20:15 77° ENE 21:25:21 10° N
ATLAS CENTAUR R/B 4.4 21:03:29 10° NW 21:20:31 64° SW 21:26:29 10° SSE
USA 229 DEB 3.6 21:15:01 10° SSW 21:21:53 80° ESE 21:25:18 31° NE
USA 229 3.6 21:15:03 10° SSW 21:21:56 79° ESE 21:25:22 31° NE
Okean 3 Rocket 3.5 21:19:49 28° NNE 21:22:02 64° E 21:26:27 10° SSE
COSMOS 2406 3.2 21:16:23 10° NNW 21:22:04 84° WSW 21:27:50 10° SSE
Cosmos 1697 Rocket 4.1 21:18:23 10° S 21:22:46 22° ESE 21:23:50 21° ESE
Cosmos 2058 3.1 21:18:57 10° NNW 21:23:06 72° W 21:27:18 10° S
NOAA 11 4.3 21:18:34 10° S 21:24:09 77° WSW 21:29:38 10° NNW
MOS 1 Rocket 4.1 21:24:44 33° E 21:25:15 34° ESE 21:29:46 10° S
CZ-4 R/B 4.1 21:23:13 10° SSW 21:26:14 21° WSW 21:29:17 10° WNW
In-Cosmos 22 Rocket 4.2 21:21:15 10° N 21:27:01 76° E 21:32:55 10° SSE
NOSS 3-1 (A) 3.7 21:21:56 10° SSW 21:28:00 49° SE 21:29:46 37° E
FREGAT/IRIS 4.0 21:25:34 10° SSE 21:27:07 28° SSE 21:27:07 28° SSE
Meteor 2-20 Rocket 4.4 21:23:27 10° S 21:29:39 87° W 21:34:00 20° N
USA 215 3.3 21:26:50 10° SE 21:33:14 50° NE 21:39:34 10° NNW
USA 186 3.0 21:29:54 10° SSE 21:32:00 33° SSE 21:32:00 33° SSE
Cosmos 2016 Rocket 3.9 21:28:24 12° N 21:34:18 76° E 21:40:42 10° S
Cosmos 2151 2.8 21:36:44 60° NNE 21:37:24 76° E 21:41:44 10° S
MOS 1 4.2 21:35:44 10° SSE 21:41:31 74° ENE 21:44:50 26° N
CZ-2C R/B 2.8 21:39:24 28° N 21:42:12 68° WNW 21:47:26 10° SSW
SL-08 R/B 4.4 21:38:54 26° N 21:42:31 74° E 21:48:50 10° S
NOSS 3-1 (C) 3.2 21:36:26 10° SSW 21:42:37 82° WNW 21:44:18 47° NNE
SJ-6B 3.5 21:38:46 10° SSE 21:41:47 42° SE 21:41:47 42° SE
Atlas 2A Centaur Rocket 4.0 21:14:30 10° WNW 21:44:20 49° NNW 21:46:52 37° NNE
EXPRESS MD2 4.2 21:41:39 10° WSW 21:45:00 48° NW 21:45:50 43° N
ISS -0.5 21:48:50 10° SW 21:49:59 11° SSW 21:51:08 10° S
Cosmos 1656 3.6 21:50:10 10° SSW 21:55:54 71° ESE 21:56:36 64° ENE
Cosmos 1356 Rocket 4.0 21:56:46 10° SSW 22:00:49 51° W 22:00:59 51° WNW
Cosmos 2278 4.4 22:00:55 10° S 22:05:57 39° SE 22:05:57 39° SE
SPOT 3 Rocket 3.4 22:02:46 10° SSE 22:07:46 78° ESE 22:07:46 78° ESE
NOSS 2-3 (C) 4.1 22:05:54 10° SSW 22:12:29 72° SE 22:12:32 72° ESE
Cosmos 1833 Rocket 3.0 22:09:48 11° NNW 22:15:09 65° WSW 22:20:50 10° SSE
Cosmos 1980 Rocket 3.3 22:10:29 10° S 22:14:45 31° SE 22:14:45 31° SE
Resurs 01 Rocket 3.8 22:12:59 10° SSE 22:14:09 17° SSE 22:14:09 17° SSE
Cosmos 1680 Rocket 4.0 22:15:51 10° S 22:20:09 50° SSE 22:20:09 50° SSE
SJ 16-02 4.0 22:27:05 12° SSE 22:27:05 12° SSE 22:27:22 10° SSE
H-2A R/B 2.2 22:18:32 10° S 22:23:03 69° SSW 22:23:03 69° SSW
Tsikada Rocket 4.0 22:19:52 10° S 22:26:07 76° W 22:26:44 69° NW
Mayak 1.2 22:30:32 15° SSE 22:30:32 15° SSE 22:31:31 10° SSE
Cosmos 1151 Rocket 4.5 22:31:02 10° SSW 22:33:49 36° SW 22:33:49 36° SW
Cosmos 923 Rocket 4.4 22:30:03 10° SSW 22:34:35 62° SW 22:34:35 62° SW
ATLAS CENTAUR Rocket 3.7 22:03:08 10° W 22:37:54 54° NNW 22:38:39 53° N
Thor Agena Rocket 4.4 22:45:27 46° WSW 22:45:27 46° WSW 22:49:34 10° SSW
Cosmos 2082 Rocket 2.9 22:47:05 50° W 22:47:30 51° WSW 22:53:01 10° SSE
ARGOS 4.0 22:47:46 10° S 22:52:58 46° WSW 22:52:58 46° WSW
Lacrosse 4 Rocket 3.6 22:48:46 10° SSW 22:50:47 26° SSW 22:50:47 26° SSW
Cosmos 1697 Rocket 3.8 23:01:31 10° SSW 23:05:35 40° WSW 23:05:35 40° WSW
USA 215 4.2 23:09:54 10° SE 23:16:07 45° SW 23:22:18 10° WNW
SL-16 R/B 4.0 23:13:15 10° S 23:16:05 24° SSE 23:16:05 24° SSE
Cosmos 2322 Rocket 4.1 23:40:58 10° S 23:43:34 26° S 23:43:34 26° S
USA 267 4.1 23:49:26 46° S 23:49:26 46° S 23:54:16 10° SW
Cosmos 2360 Rocket 4.4 23:49:00 10° S 23:51:06 19° SSE 23:51:06 19° SSE
